Previsão horária em Ceglow

Hoje, 25 Julho, Domingo

Tempo Temperatura Precipitação Vento Pressão Humidade
00:00 +20°C° 0 mm 3 m/s 746 mmHg 67%
01:00 +20°C° 0 mm 3 m/s 746 mmHg 68%
02:00 +19°C° 0 mm 3 m/s 746 mmHg 69%
03:00 +19°C° 0 mm 3 m/s 746 mmHg 70%
04:00 +19°C° 0 mm 3 m/s 746 mmHg 71%
05:00 +20°C° 0 mm 3 m/s 746 mmHg 69%
06:00 +21°C° 0 mm 3 m/s 746 mmHg 67%
07:00 +22°C° 0 mm 4 m/s 746 mmHg 67%
08:00 +25°C° 0 mm 4 m/s 746 mmHg 60%
09:00 +27°C° 0 mm 5 m/s 746 mmHg 53%
10:00 +28°C° 0 mm 5 m/s 746 mmHg 46%
11:00 +29°C° 0 mm 5 m/s 746 mmHg 45%
12:00 +29°C° 0 mm 6 m/s 746 mmHg 44%
13:00 +29°C° 0 mm 6 m/s 746 mmHg 43%
14:00 +29°C° 0 mm 5 m/s 746 mmHg 43%
15:00 +29°C° 0 mm 5 m/s 746 mmHg 43%
16:00 +30°C° 0 mm 5 m/s 746 mmHg 42%
17:00 +28°C° 0 mm 4 m/s 746 mmHg 47%
18:00 +26°C° 0 mm 4 m/s 746 mmHg 53%
19:00 +25°C° 0 mm 3 m/s 746 mmHg 58%
20:00 +24°C° 0 mm 3 m/s 746 mmHg 60%
21:00 +22°C° 0 mm 3 m/s 746 mmHg 63%
22:00 +21°C° 0 mm 3 m/s 746 mmHg 65%
23:00 +21°C° 0.1 mm 4 m/s 746 mmHg 67%

Amanhã, 26 Julho, Segunda-feira

Tempo Temperatura Precipitação Vento Pressão Humidade
00:00 +21°C° 0.1 mm 4 m/s 746 mmHg 68%
01:00 +20°C° 0.1 mm 4 m/s 745 mmHg 69%
02:00 +20°C° 0 mm 4 m/s 745 mmHg 69%
03:00 +20°C° 0 mm 5 m/s 745 mmHg 68%
04:00 +20°C° 0 mm 5 m/s 745 mmHg 68%
05:00 +22°C° 0 mm 5 m/s 745 mmHg 65%
06:00 +23°C° 0 mm 6 m/s 745 mmHg 62%
07:00 +24°C° 0 mm 6 m/s 745 mmHg 59%
08:00 +26°C° 0 mm 6 m/s 745 mmHg 56%
09:00 +27°C° 0 mm 6 m/s 745 mmHg 53%
10:00 +28°C° 0 mm 6 m/s 745 mmHg 50%
11:00 +28°C° 0 mm 6 m/s 745 mmHg 51%
12:00 +28°C° 0 mm 6 m/s 745 mmHg 52%
13:00 +28°C° 0 mm 6 m/s 745 mmHg 54%
14:00 +28°C° 0.3 mm 5 m/s 744 mmHg 56%
15:00 +27°C° 0.3 mm 5 m/s 744 mmHg 59%
16:00 +27°C° 0.3 mm 5 m/s 744 mmHg 62%
17:00 +26°C° 0.9 mm 5 m/s 744 mmHg 68%
18:00 +25°C° 0.9 mm 5 m/s 743 mmHg 75%
19:00 +22°C° 0.9 mm 5 m/s 743 mmHg 81%
20:00 +22°C° 2.4 mm 5 m/s 743 mmHg 86%
21:00 +21°C° 2.4 mm 5 m/s 743 mmHg 90%
22:00 +20°C° 2.4 mm 4 m/s 743 mmHg 94%
23:00 +20°C° 0.1 mm 4 m/s 743 mmHg 95%

Depois de amanhã, 27 Julho, Terça-feira

Tempo Temperatura Precipitação Vento Pressão Humidade
00:00 +20°C° 0.1 mm 3 m/s 743 mmHg 96%
01:00 +19°C° 0.1 mm 3 m/s 743 mmHg 97%
02:00 +19°C° 0 mm 2 m/s 743 mmHg 97%
03:00 +19°C° 0 mm 2 m/s 743 mmHg 97%
04:00 +18°C° 0 mm 2 m/s 743 mmHg 97%
05:00 +20°C° 0 mm 2 m/s 744 mmHg 91%
06:00 +21°C° 0 mm 2 m/s 744 mmHg 85%
07:00 +24°C° 0 mm 3 m/s 744 mmHg 79%
08:00 +24°C° 0.1 mm 3 m/s 744 mmHg 77%
09:00 +25°C° 0.1 mm 3 m/s 744 mmHg 74%
10:00 +25°C° 0.1 mm 3 m/s 744 mmHg 72%
11:00 +26°C° 0.4 mm 3 m/s 744 mmHg 71%
12:00 +26°C° 0.4 mm 3 m/s 744 mmHg 70%
13:00 +26°C° 0.4 mm 3 m/s 745 mmHg 70%
14:00 +27°C° 0.1 mm 3 m/s 745 mmHg 64%
15:00 +28°C° 0.1 mm 3 m/s 744 mmHg 58%
16:00 +29°C° 0.1 mm 3 m/s 744 mmHg 52%
17:00 +28°C° 0.5 mm 3 m/s 744 mmHg 59%
18:00 +26°C° 0.5 mm 3 m/s 744 mmHg 67%
19:00 +25°C° 0.5 mm 3 m/s 744 mmHg 75%
20:00 +22°C° 0.6 mm 3 m/s 744 mmHg 79%
21:00 +21°C° 0.6 mm 2 m/s 745 mmHg 82%
22:00 +20°C° 0.6 mm 2 m/s 745 mmHg 86%
23:00 +20°C° 0 mm 2 m/s 745 mmHg 86%

28 Julho, Quarta-feira

Tempo Temperatura Precipitação Vento Pressão Humidade
00:00 +21°C° 0 mm 1 m/s 745 mmHg 87%
01:00 +21°C° 0 mm 1 m/s 745 mmHg 87%
02:00 +19°C° 0 mm 2 m/s 745 mmHg 88%
03:00 +19°C° 0 mm 2 m/s 745 mmHg 88%
04:00 +18°C° 0 mm 2 m/s 745 mmHg 89%
05:00 +20°C° 0 mm 2 m/s 745 mmHg 84%
06:00 +22°C° 0 mm 3 m/s 745 mmHg 79%
07:00 +24°C° 0 mm 3 m/s 745 mmHg 74%
08:00 +26°C° 0 mm 3 m/s 745 mmHg 66%
09:00 +27°C° 0 mm 3 m/s 745 mmHg 58%
10:00 +29°C° 0 mm 3 m/s 745 mmHg 50%
11:00 +30°C° 0 mm 3 m/s 745 mmHg 47%
12:00 +30°C° 0 mm 3 m/s 745 mmHg 45%
13:00 +30°C° 0 mm 3 m/s 745 mmHg 43%
14:00 +30°C° 0 mm 3 m/s 745 mmHg 46%
15:00 +30°C° 0 mm 2 m/s 744 mmHg 49%
16:00 +29°C° 0 mm 2 m/s 744 mmHg 51%
17:00 +28°C° 0 mm 2 m/s 744 mmHg 55%
18:00 +27°C° 0 mm 2 m/s 744 mmHg 58%
19:00 +26°C° 0 mm 2 m/s 744 mmHg 61%
20:00 +25°C° 0.2 mm 2 m/s 744 mmHg 66%
21:00 +23°C° 0.2 mm 2 m/s 744 mmHg 71%
22:00 +21°C° 0.2 mm 2 m/s 745 mmHg 76%
23:00 +20°C° 0.4 mm 2 m/s 745 mmHg 80%

29 Julho, Quinta-feira

Tempo Temperatura Precipitação Vento Pressão Humidade
00:00 +20°C° 0.4 mm 2 m/s 745 mmHg 84%
01:00 +19°C° 0.4 mm 3 m/s 745 mmHg 88%
02:00 +19°C° 0.3 mm 3 m/s 745 mmHg 90%
03:00 +18°C° 0.3 mm 3 m/s 745 mmHg 92%
04:00 +18°C° 0.3 mm 4 m/s 745 mmHg 94%
05:00 +18°C° 0.2 mm 3 m/s 746 mmHg 92%
06:00 +19°C° 0.2 mm 3 m/s 746 mmHg 89%
07:00 +19°C° 0.2 mm 3 m/s 746 mmHg 87%
08:00 +21°C° 0 mm 3 m/s 746 mmHg 79%
09:00 +22°C° 0 mm 3 m/s 746 mmHg 71%
10:00 +25°C° 0 mm 3 m/s 746 mmHg 63%
11:00 +26°C° 0 mm 3 m/s 746 mmHg 59%
12:00 +27°C° 0 mm 3 m/s 746 mmHg 54%
13:00 +28°C° 0 mm 3 m/s 746 mmHg 49%
14:00 +28°C° 0 mm 2 m/s 746 mmHg 49%
15:00 +28°C° 0 mm 2 m/s 746 mmHg 49%
16:00 +28°C° 0 mm 2 m/s 745 mmHg 48%
17:00 +27°C° 0 mm 2 m/s 745 mmHg 52%
18:00 +26°C° 0 mm 2 m/s 745 mmHg 56%
19:00 +25°C° 0 mm 2 m/s 745 mmHg 59%
20:00 +24°C° 0 mm 1 m/s 745 mmHg 60%
21:00 +23°C° 0 mm 1 m/s 745 mmHg 61%
22:00 +23°C° 0 mm 1 m/s 745 mmHg 61%
23:00 +23°C° 0 mm 1 m/s 745 mmHg 61%

30 Julho, Sexta-feira

Tempo Temperatura Precipitação Vento Pressão Humidade
00:00 +22°C° 0 mm 1 m/s 745 mmHg 62%
01:00 +21°C° 0 mm 2 m/s 745 mmHg 62%
02:00 +21°C° 0 mm 2 m/s 745 mmHg 65%
03:00 +20°C° 0 mm 2 m/s 745 mmHg 67%
04:00 +20°C° 0 mm 3 m/s 744 mmHg 70%
05:00 +21°C° 0 mm 3 m/s 744 mmHg 68%
06:00 +22°C° 0 mm 3 m/s 744 mmHg 66%
07:00 +25°C° 0 mm 4 m/s 744 mmHg 64%
08:00 +26°C° 0 mm 4 m/s 744 mmHg 58%
09:00 +28°C° 0 mm 4 m/s 744 mmHg 52%
10:00 +29°C° 0 mm 5 m/s 743 mmHg 45%
11:00 +30°C° 0 mm 5 m/s 743 mmHg 44%
12:00 +32°C° 0 mm 5 m/s 743 mmHg 42%
13:00 +32°C° 0 mm 5 m/s 742 mmHg 40%
14:00 +32°C° 0 mm 5 m/s 742 mmHg 41%
15:00 +33°C° 0 mm 4 m/s 741 mmHg 43%
16:00 +33°C° 0 mm 4 m/s 741 mmHg 44%
17:00 +30°C° 0.1 mm 4 m/s 741 mmHg 51%
18:00 +28°C° 0.1 mm 3 m/s 740 mmHg 59%
19:00 +26°C° 0.1 mm 3 m/s 740 mmHg 66%
20:00 +25°C° 1.1 mm 3 m/s 740 mmHg 75%
21:00 +22°C° 1.1 mm 3 m/s 741 mmHg 84%
22:00 +21°C° 1.1 mm 2 m/s 741 mmHg 93%
23:00 +21°C° 1.1 mm 2 m/s 741 mmHg 93%
Mostrar mais

Necessitamos do seu Consentimento

A Meteoprog e os seus Fornecedores de Serviços podem armazenar e aceder a dados pessoais como cookies, identificadores do dispositivo ou outras tecnologias semelhantes existentes no seu dispositivo e processar estes dados para personalizar conteúdos e anúncios, assim como funcionalidades nas redes sociais e análise de tráfego.

  • Armazenar e/ou aceder a informações no seu dispositivo

    Os cookies, identificadores do dispositivo ou outras informações podem ser armazenados ou acedidos no seu dispositivo, para os fins acima indicados.

  • Anúncios e conteúdos personalizados, medição de anúncios e conteúdos, dados sobre o público-alvo e desenvolvimento de produtos

    Os anúncios e os conteúdos podem ser personalizados com base num perfil. Podem ser adicionados dados adicionais para uma maior personalização dos anúncios e dos conteúdos. A eficácia dos anúncios e dos conteúdos pode ser medida. Podem ser obtidas informações sobre o público que visualizou os anúncios e os conteúdos. Estes dados podem ser usados para desenvolver ou melhorar sistemas, softwares ou a experiência do utilizador.

Ao clicar em "Eu concordo”, permitirá o uso de cookies, identificadores do dispositivo e web beacons mencionados ou outras tecnologias semelhantes. As configurações do navegador do seu dispositivo podem ser alteradas.

Para certos fins, podem ser invocados interesses legítimos ao invés de consentimento. Pode ler mais informação sobre este assunto na nossa Política de Privacidade e Cookies.